Regional Weather Roundup
Issued by NWS

Home | Current Version | Previous Version | Text Only | Print | Product List | Glossary Off
Versions: 1 2 3 4 5 6 7 8 9 10 11 12 13 14 15 16 17 18 19 20 21 22 23 24 25 26 27 28 29 30 31 32 33 34 35 36 37 38 39 40 41 42 43 44 45 46 47 48 49 50

000
ASUS43 KMPX 282010
RWRMN
WEATHER ROUNDUP FOR MINNESOTA
NATIONAL WEATHER SERVICE TWIN CITIES/CHANHASSEN MN
200 PM CST FRI NOV 28 2014


NOTE: "FAIR" INDICATES FEW OR NO CLOUDS BELOW 12,000 FEET WITH NO
SIGNIFICANT WEATHER AND/OR OBSTRUCTIONS TO VISIBILITY. N/A MEANS
CURRENT SKY AND/OR WEATHER CONDITIONS ARE NOT AVAILABLE.

MNZ060>063-068>070-282100-
   Twin Cities Metro

CITY           SKY/WX    TMP DP  RH WIND       PRES   REMARKS
TWIN CITIES    LGTSLEET  21  14  74 E13       29.85F WCI   9
ST PAUL        CLOUDY    22  13  68 E7        29.90R WCI  13
CRYSTAL        CLOUDY    22  13  68 E9        29.84F WCI  12
BLAINE         CLOUDY    23  16  74 SE8       29.86F WCI  14
LAKEVILLE      MOSUNNY   21  16  79 SE6       29.85S WCI  14
EDEN PRAIRIE   CLOUDY    22  15  75 SE10      29.85F WCI  11
SOUTH ST PAUL  FLURRIES  23  14  69 E5        29.89R WCI  17
LAKE ELMO      CLOUDY    23  16  74 SE6       29.87S WCI  16
$$
MNZ001>005-007-008-013>017-022>024-027-028-282100-
   Northwest Minnesota

CITY           SKY/WX    TMP DP  RH WIND       PRES   REMARKS
BEMIDJI        CLOUDY    13   7  78 E9        29.81F WCI   1
HALLOCK        MOSUNNY   18  10  73 E9        29.85F WCI   6
ROSEAU         CLOUDY    16   9  73 E10       29.87F WCI   3
WARROAD        PTSUNNY   12   9  85 NE10      29.89S WCI  -1
THIEF RVR FALL CLOUDY    14   9  79 E12       29.83F WCI   0
CROOKSTON      CLOUDY    16   9  73 E8        29.85F WCI   5
FOSSTON        CLOUDY    16   7  67 E7        29.82F WCI   6
DETROIT LAKES  PTSUNNY   18  10  73 SE13      29.78F WCI   4
MOORHEAD       PTSUNNY   18  12  79 SE7       29.82F WCI   8
PARK RAPIDS    CLOUDY    15   8  73 E9        29.80F WCI   3
MAHNOMEN       CLOUDY    16   8  71 E9        29.79F WCI   4
$$
MNZ006-009>011-018-025>026-282100-
   North Central Minnesota

CITY           SKY/WX    TMP DP  RH WIND       PRES   REMARKS
BAUDETTE       CLOUDY    14   7  73 E7        29.87F WCI   4
FLAG ISLAND    CLOUDY    12   3  67 SE5       29.89F WCI   4
INTL FALLS     CLOUDY    16   8  71 SE8       29.89F WCI   5
WASKISH        CLOUDY    16  10  79 CALM      29.87S
BIG FORK       PTSUNNY   16   9  73 E5        29.86F WCI   9
LONGVILLE      CLOUDY    14   9  79 E3        29.84F
GRAND RAPIDS   CLOUDY    12   7  79 SE6       29.87R WCI   3
CRANE LAKE     CLOUDY    16   7  67 CALM      29.93F
ORR            CLOUDY    14   7  73 SE6       29.87R WCI   5
COOK           FLURRIES  16  10  79 CALM      29.89S
WALKER         CLOUDY    13   7  77 E6        29.83F WCI   3
$$
MNZ012-019>021-037-282100-
   Northeast Minnesota

CITY           SKY/WX    TMP DP  RH WIND       PRES   REMARKS
DULUTH         LGT SNOW  14   9  80 SE8       29.87F WCI   3
ELY            FLURRIES  18  10  73 E5        29.88F WCI  11
HIBBING        CLOUDY    16   8  71 SE6       29.88F WCI   7
EVELETH        FLURRIES  18  12  79 E5        29.88F WCI  11
DULUTH HARBOR  FLURRIES  18  12  79 CALM      29.95F
TWO HARBORS    LGT SNOW  19  12  73 CALM      29.90F
SILVER BAY     LGT SNOW  19  16  86 E5        29.91F WCI  13
GRAND MARAIS     N/A     23  12  62 E6        29.98F WCI  16
G MARAIS ARPRT CLOUDY    16   7  67 E8        29.90F WCI   5
$$
MNZ029>031-032-039>041-046>048-054>057-064-282100-
   West Central Minnesota

CITY           SKY/WX    TMP DP  RH WIND       PRES   REMARKS
FERGUS FALLS   MOSUNNY   16   9  73 SE8       29.83F WCI   5
WHEATON        MOSUNNY   16  12  86 E13       29.80F WCI   2
MORRIS         FAIR      19  12  73 SE9       29.78S WCI   9
ALEXANDRIA     CLOUDY    15  10  80 E14       29.79F WCI   0
ELBOW LAKE     FAIR      16  10  79 E10       29.78F WCI   3
WADENA         MOSUNNY   14   9  79 E8        29.80F WCI   3
GLENWOOD       MOSUNNY   18  12  79 E14       29.79F WCI   4
APPLETON       MOSUNNY   19  12  73 E12       29.78F WCI   7
BENSON         PTSUNNY   19  14  79 SE12      29.79F WCI   7
ORTONVILLE     MOSUNNY   16  10  79 E8        29.77F WCI   5
MADISON        PTSUNNY   21  16  79 E10       29.77F WCI  10
WILLMAR        FAIR      21  14  73 E13       29.80F WCI   9
$$
MNZ033>034-036-042>043-049>051-058-059-282100-
   Central Minnesota

CITY           SKY/WX    TMP DP  RH WIND       PRES   REMARKS
ST CLOUD       CLOUDY    19  12  74 E7        29.84F WCI  10
SAUK CENTRE    LGT SNOW  15  11  83 E12       29.81F WCI   2
PAYNESVILLE    CLOUDY    16  11  82 NE8       29.82F WCI   5
AITKIN         MIX PCPN  18   9  68 E6        29.84F WCI   9
PINE RIVER     FLURRIES  14   9  79 E8        29.86F WCI   3
BRAINERD       CLOUDY    13   8  81 E7        29.84F WCI   3
STAPLES        CLOUDY    12   9  85 SE6       29.81F WCI   3
LONG PRAIRIE   LGT SNOW  14  10  85 E7        29.81F WCI   4
LITTLE FALLS   FLURRIES  18  10  73 SE6       29.86S WCI   9
LITCHFIELD     PTSUNNY   19  16  86 SE12      29.81F WCI   7
BUFFALO        CLOUDY    21  14  73 E8        29.85F WCI  12
MAPLE LAKE     CLOUDY    22  15  75 E9        29.84F WCI  12
$$
MNZ037-044-045-052-053-282100-
   East Central Minnesota

CITY           SKY/WX    TMP DP  RH WIND       PRES   REMARKS
PRINCETON      FLURRIES  19  12  73 E8        29.84F WCI   9
MORA             N/A    N/A N/A N/A MISG        N/A
CAMBRIDGE      CLOUDY    19  10  68 E5        29.84F WCI  13
RUSH CITY      CLOUDY    18  12  75 E6        29.88F WCI  10
MOOSE LAKE     LGT SNOW  18  10  73 SE5       29.87F WCI  11
HINCKLEY       FLURRIES  18  12  79 CALM      29.88F
CLOQUET        LGT SNOW  14   9  79 E6        29.88F WCI   5
MCGREGOR       CLOUDY    18  10  73 SE5       29.87F WCI  11
$$
MNZ071>073-080-081-089-090-097-098-282100-
   Southwest Minnesota

CITY           SKY/WX    TMP DP  RH WIND       PRES   REMARKS
MONTEVIDEO     PTSUNNY   18  16  93 S9        29.79F WCI   6
GRANITE FALLS  PTSUNNY   21  16  80 E6        29.80F WCI  13
CANBY          PTSUNNY   22  16  79 E9        29.76F WCI  11
MARSHALL       PTSUNNY   21  14  73 E9        29.75F WCI  11
REDWOOD FALLS  PTSUNNY   21  16  81 SE9       29.78F WCI  11
OLIVIA         MOSUNNY   21  16  79 E8        29.79F WCI  12
PIPESTONE      PTSUNNY   34  27  75 SE9       29.67F WCI  26
WINDOM         PTSUNNY   25  19  80 SE8       29.75F WCI  16
WORTHINGTON    MOSUNNY   28  25  86 E10       29.73F WCI  19
JACKSON        MOSUNNY   27  21  80 SE10      29.74F WCI  17
TRACY          PTSUNNY   26  20  80 E7        29.75F WCI  18
SLAYTON        PTSUNNY   28  24  85 E9        29.71F WCI  19
$$
MNZ065>067-074>077-082>085-091>093-282100-
   South Central Minnesota

CITY           SKY/WX    TMP DP  RH WIND       PRES   REMARKS
MANKATO        PTSUNNY   21  16  79 SE13      29.81F WCI   9
NEW ULM        PTSUNNY   21  18  86 SE6       29.80F WCI  14
ST JAMES       CLOUDY    25  19  80 SE8       29.80F WCI  16
FAIRMONT       PTSUNNY   25  19  80 SE10      29.78F WCI  15
GLENCOE        MOSUNNY   22  18  84 E10       29.83F WCI  11
FARIBAULT      MOSUNNY   23  18  80 SE7       29.84F WCI  15
OWATONNA       PTSUNNY   21  18  86 SE8       29.83S WCI  12
WASECA         PTSUNNY   23  16  74 SE8       29.84F WCI  14
ALBERT LEA     CLOUDY    21  19  93 SE6       29.81R WCI  14
$$
MNZ078>079-086>088-094>096-282100-
   Southeast Minnesota

CITY           SKY/WX    TMP DP  RH WIND       PRES   REMARKS
ROCHESTER      CLOUDY    22  17  81 SE14      29.83F WCI   9
RED WING       PTSUNNY   25  14  63 SE9       29.86F WCI  15
STANTON        MIX PCPN  25  17  72 S7        29.86R WCI  17
DODGE CENTER   PTSUNNY   21  19  93 SE9       29.83R WCI  11
WINONA         PTSUNNY   28  19  69 SE8       29.91F WCI  20
AUSTIN         CLOUDY    21  18  86 SE10      29.81F WCI  10
PRESTON        MIX PCPN  23  19  83 SE10      29.84F WCI  12
$$
ABBREVIATIONS USED IN REMARKS
   TC - TEMPERATURES IN CELSIUS
  WCI - WIND CHILL INDEX
   HX - HEAT INDEX
  VSB - VISIBILITY
$$



USA.gov is the U.S. government's official web portal to all federal, state and local government web resources and services.